Find Starlink 2517

NORAD ID: 48309 Int'l Des: 2021-036 Owner: SPXS Country: US Constellation: starlink operational
LEOCIRCULAR

当前视图

正在加载3D地球...

关于 Starlink 2517

正在加载描述...

即将过境

Passes for default location (London). Set your location on the main map for personalized predictions.

高度历史

Loading altitude history...

两行轨道根数

1 48309U 21036AK 26150.97625683 .00001063 00000-0 48022-4 0 9996
2 48309 53.1606 65.9330 0001242 103.1188 256.9952 15.30189775280828
Epoch: May 30, 2026 • Age: 20 hours

当前状态

高度 492.3 km
速度 7.62 km/s
星下点 -47.31°S, 173.92°W
发射日期 Apr 29, 2021
运行时间 5 years
类型 internet

技术详情

分类 Payload
质量 260.00 kg
干质量 248.00 kg
总质量 260.00 kg
长度 0.20 m
直径 2.80 m
跨度 9.00 m
形状 Box + pan
制造商 SPXS
平台类型 Starlink
阶段状态 In Orbit
所有者/国家 SPXS/US

Most Searched